Weather in Melensk

Russia / Bryansk Oblast     52°37′57″N   32°55′40″E
temp.,
°C
wind,
m/s
gust,
m/s
humid.,
%
clouds,
%
prec.,
mm/h
press.,
hPa
HPBL,
m
11 april, sun
sun1100:00+4ssw38670 0.0 1026135
03:00+3ssw38700 0.0 1027128
06:00+2ssw34720 0.0 102852
09:00+7s34590 0.0 1029240
12:00+12s34450 0.0 1029828
15:00+14sse22390 0.0 10281272
18:00+13ese34470 0.0 1029209
21:00+9e33590 0.0 103028
12 april, mon
mon1200:00+7e33680 0.0 103033
03:00+5e3472100 0.0 103048
06:00+4ene377746 0.0 1029112
09:00+8ene51058100 0.0 1028389
12:00+11e5761100 0.0 1026737
15:00+10e4572100 0.1 1025552
18:00+12e3576100 0.0 1024469
21:00+9ene339099 0.0 102443
13 april, tue
tue1300:00+9ene3391100 0.0 102357
03:00+9ene339196 0.0 102235
06:00+9e3390100 0.0 102245
09:00+13ese3673100 0.0 1021223
12:00+17se5759100 0.0 1021859
15:00+19se7950100 0.0 10201815
18:00+16sse4862100 0.0 1019556
21:00+13se367996 0.1 1020181
14 april, wed
wed1400:00+12sse2586100 0.0 1019148
03:00+11sse258894 0.0 1019143
06:00+11se249136 0.3 1018116
09:00+12se4781100 0.3 1018432
12:00+15sse4569100 0.0 1018825
15:00+16sse476065 0.1 10161239
18:00+14sse3569100 0.1 1016164
21:00+11sse51090100 1.1 1016526
15 april, thu
thu1500:00+11e359299 0.8 1015141
03:00+9e4892100 0.9 1014196
06:00+9se479294 0.1 1014394
09:00+9s3789100 0.1 1015340
12:00+13s346273 0.0 1015996
15:00+15se225477 0.2 10151237
18:00+14ese2265100 0.6 1015128
21:00+11nne227162 0.6 101518